#timestamp,LO_Frequency,Hit,StdDev 
1558497615.3,286047003.7,N
1558497635.2,286047002.2,N
1558497655.9,286047000.6,N
1558497675.7,286046999.7,N
1558497695.6,286047004.4,N
1558497715.4,286047000.2,N
1558497735.3,286047001.8,N
1558497755.1,286047001.9,N
1558497756.0,286047001.9,N
1558497775.8,286047001.5,N
1558497795.7,286047002.0,N
1558497815.5,286047003.9,N
1558497835.3,286047004.3,N
1558497855.2,286047000.6,N
1558497875.0,286046998.2,N
1558497875.9,286046998.2,N
1558497895.8,286046998.1,N
1558497915.6,286047002.6,N
1558497935.4,286047000.3,N
1558497955.3,286047000.4,N
1558497975.1,286047000.1,N
1558497995.9,286047002.1,N
1558498015.7,286047002.1,N
1558498035.5,286047002.8,N
1558498055.4,286046999.7,N
1558498075.2,286047002.4,N
1558498095.0,286047002.8,N
1558498095.9,286047002.8,N
1558498115.8,286046999.7,N
1558498135.6,286047002.7,N
1558498155.5,286047002.6,N
1558498175.3,286047004.3,N
1558498195.1,286047004.2,N
1558498215.9,286047001.8,N
1558498235.7,286047000.1,N
1558498255.5,286047001.3,N
1558498275.4,286047001.8,N
1558498295.2,286047002.7,N
1558498315.1,286047002.3,N
1558498316.0,286047002.3,N
1558498335.8,286047001.7,N
1558498355.6,286047001.4,N
1558498375.5,286047002.7,N
1558498395.3,286047002.1,N
1558498415.1,286047000.9,N
1558498435.9,286046998.3,N
1558498455.7,286047001.2,N
1558498475.6,286046999.2,N
1558498495.4,286046996.5,N
1558498515.2,286046997.1,N
1558498535.1,286046998.5,N
1558498536.0,286046998.5,N
1558498555.8,286046998.5,N
1558498575.7,286047000.9,N
1558498595.5,286047002.3,N
1558498615.3,286047002.6,N
1558498635.2,286047001.9,N
1558498655.9,286047001.9,N
1558498675.7,286047002.0,N
1558498695.6,286047002.2,N
1558498715.4,286046999.7,N
1558498735.2,286047000.0,N
1558498755.1,286046998.1,N
1558498756.0,286046998.1,N
1558498775.8,286047002.6,N
1558498795.7,286047004.2,N
1558498815.5,286047003.3,N
1558498835.3,286047009.0,Y
1558498855.2,286047003.2,P
1558498875.0,286047003.2,N
1558498875.9,286047003.2,N
1558498895.8,286047001.8,N
1558498915.6,286047002.4,N
1558498935.4,286047000.5,N
1558498955.3,286047000.2,N
1558498975.1,286047000.3,N
1558498995.8,286046998.1,N
1558499015.7,286047002.1,N
1558499035.5,286047001.5,N
1558499055.4,286047002.8,N
1558499075.2,286047001.3,N
1558499095.0,286047002.1,N
1558499095.9,286047011.9,Y
1558499115.8,286047001.0,P
1558499135.6,286046999.1,P
1558499155.4,286046998.3,N
1558499175.3,286047002.1,N
1558499195.1,286047001.6,N
1558499215.9,286047007.2,Y
1558499235.7,286047004.0,P
1558499255.5,286046999.8,N
1558499275.4,286046999.9,N
1558499295.2,286047000.3,N
1558499315.0,286047000.3,N
1558499315.9,286047000.3,N
1558499335.8,286047000.2,N
1558499355.6,286047000.4,N
1558499375.5,286047000.9,N
1558499395.3,286046999.8,N
1558499415.1,286047000.8,N
1558499435.9,286047000.4,N
1558499455.7,286047000.0,N
1558499475.5,286047000.5,N
1558499495.4,286046998.5,N
1558499515.2,286046999.3,N
1558499535.1,286046999.4,N
1558499536.0,286046999.4,N
1558499555.8,286047000.3,N
1558499575.6,286046999.2,N
1558499595.5,286046997.0,N
1558499615.3,286046997.1,N
1558499635.1,286046996.7,N
1558499655.9,286046997.8,N
1558499675.7,286046995.0,Y
1558499695.6,286046997.2,P
1558499715.4,286046997.2,N
1558499735.2,286046996.7,N
1558499755.1,286046996.6,N
1558499756.0,286046996.6,N
1558499775.8,286047002.0,N
1558499795.7,286047003.0,N
1558499815.5,286047004.1,N
1558499835.3,286047000.6,N
1558499855.2,286047000.9,N
1558499875.0,286047000.4,N
1558499875.9,286047000.4,N
1558499895.7,286047000.6,N
1558499915.6,286047000.0,N
1558499935.4,286047002.7,N
1558499955.3,286047001.5,N
1558499975.5,286046999.8,N
1558499995.3,286046998.5,N
1558500015.2,286047000.0,N
1558500035.9,286047001.9,N
1558500055.7,286047001.9,N
1558500075.6,286047002.1,N
1558500095.4,286047003.8,N
1558500115.1,286047003.2,N
1558500135.8,286047007.5,Y
1558500155.7,286047003.5,P
1558500175.5,286047001.6,N
1558500195.3,286047002.4,N
1558500215.2,286047000.5,N
1558500235.0,286047002.5,N
1558500235.9,286047002.5,N
1558500255.8,286047001.4,N
1558500275.6,286047003.9,Y
1558500295.4,286047002.3,P
1558500315.3,286047003.6,P
1558500335.1,286047003.7,P
1558500355.8,286047001.4,N
1558500375.7,286047002.8,N
1558500395.5,286047000.2,N
1558500415.4,286046998.1,N
1558500435.2,286047001.9,N
1558500455.0,286047000.8,N
1558500455.9,286047000.8,N
1558500475.8,286046998.5,N
1558500495.6,286046999.6,N
1558500515.4,286046997.9,N
1558500535.3,286046997.8,N
1558500555.1,286046995.2,N
1558500575.9,286046993.7,N
1558500595.7,286046995.6,N
1558500615.5,286046997.0,N
1558500635.4,286046999.1,N
1558500655.2,286046998.5,N
1558500675.0,286046998.1,N
1558500675.9,286046998.1,N
1558500695.8,286047001.1,N
1558500715.6,286047000.9,N
1558500735.5,286047000.6,N
1558500755.3,286046998.5,N
1558500775.1,286046998.9,N
1558500795.9,286046998.8,N
1558500815.7,286046997.0,N
1558500835.5,286046997.1,N
1558500855.4,286046996.0,N
1558500875.2,286046992.6,Y
1558500895.0,286046992.0,P
1558500896.0,286046992.0,N
1558500915.8,286046993.5,N
1558500935.6,286046994.2,N
1558500955.4,286046993.8,N
1558500975.2,286046993.7,N
1558500995.0,286046992.1,Y
1558500995.9,286046992.1,P
1558501015.8,286046999.9,N
1558501035.6,286047002.7,N
1558501055.4,286047002.3,N
1558501075.3,286046998.6,N
1558501125.2,286047001.0,E
1558501135.1,286046998.5,N
1558501136.0,286046998.5,P
1558501155.8,286046997.3,P
1558501175.3,286046998.0,Y
1558501195.1,286046998.9,P
1558501196.0,286046998.9,N
